When you browse on this site, cookies collect data to enhance your experience and personalize the content and advertising you see.
Visit our Privacy Policy to learn more. By continuing to use the site, you agree to this use of cookies and data.
  • In Romania
  • List of Countries
  • For 7 days
  • Water Temperature
  • Satellite Maps
  • Weather Map
  • Weather Widgets
  • user-avatar
    Login

    Hourly Weather Luzhkovo

    Today, 19 March, Tuesday

    Time Temperature Precipitation Wind Pressure Humidity
    00:00 +2°C° 0.5 mm 3 mps 738 mmHg 93%
    01:00 +2°C° 0.5 mm 2 mps 738 mmHg 95%
    02:00 +2°C° 0.5 mm 2 mps 738 mmHg 97%
    03:00 +3°C° 0.4 mm 1 mps 738 mmHg 97%
    04:00 +2°C° 0.4 mm 1 mps 738 mmHg 97%
    05:00 +2°C° 0.4 mm 1 mps 738 mmHg 97%
    06:00 +3°C° 0 mm 1 mps 738 mmHg 95%
    07:00 +3°C° 0 mm 1 mps 738 mmHg 93%
    08:00 +3°C° 0 mm 2 mps 739 mmHg 91%
    09:00 +3°C° 0 mm 2 mps 739 mmHg 88%
    10:00 +4°C° 0 mm 2 mps 739 mmHg 84%
    11:00 +5°C° 0 mm 2 mps 740 mmHg 81%
    12:00 +5°C° 0 mm 3 mps 740 mmHg 79%
    13:00 +5°C° 0 mm 3 mps 740 mmHg 76%
    14:00 +7°C° 0 mm 3 mps 740 mmHg 74%
    15:00 +5°C° 0 mm 3 mps 740 mmHg 78%
    16:00 +5°C° 0 mm 2 mps 740 mmHg 82%
    17:00 +4°C° 0 mm 2 mps 740 mmHg 86%
    18:00 +3°C° 0 mm 2 mps 740 mmHg 88%
    19:00 +2°C° 0 mm 2 mps 741 mmHg 89%
    20:00 +1°C° 0 mm 2 mps 741 mmHg 91%
    21:00 +1°C° 0 mm 2 mps 741 mmHg 91%
    22:00 -1°C° 0 mm 2 mps 741 mmHg 92%
    23:00 -1°C° 0 mm 2 mps 741 mmHg 92%

    Tomorrow, 20 March, Wednesday

    Time Temperature Precipitation Wind Pressure Humidity
    00:00 -1°C° 0 mm 2 mps 741 mmHg 92%
    01:00 -1°C° 0 mm 2 mps 742 mmHg 92%
    02:00 -2°C° 0 mm 3 mps 742 mmHg 92%
    03:00 -2°C° 0 mm 3 mps 742 mmHg 92%
    04:00 -2°C° 0 mm 3 mps 742 mmHg 93%
    05:00 -2°C° 0 mm 3 mps 742 mmHg 93%
    06:00 -2°C° 0 mm 3 mps 742 mmHg 90%
    07:00 -1°C° 0 mm 3 mps 742 mmHg 87%
    08:00 -1°C° 0 mm 4 mps 743 mmHg 84%
    09:00 -1°C° 0 mm 4 mps 743 mmHg 82%
    10:00 0°C° 0 mm 4 mps 743 mmHg 80%
    11:00 0°C° 0 mm 4 mps 743 mmHg 78%
    12:00 0°C° 0 mm 4 mps 744 mmHg 77%
    13:00 0°C° 0 mm 4 mps 744 mmHg 76%
    14:00 +1°C° 0 mm 4 mps 744 mmHg 75%
    15:00 +1°C° 0 mm 3 mps 744 mmHg 76%
    16:00 +1°C° 0 mm 3 mps 744 mmHg 78%
    17:00 0°C° 0 mm 3 mps 744 mmHg 79%
    18:00 0°C° 0 mm 3 mps 744 mmHg 81%
    19:00 -1°C° 0 mm 3 mps 743 mmHg 83%
    20:00 -2°C° 0 mm 3 mps 743 mmHg 85%
    21:00 -2°C° 0 mm 3 mps 743 mmHg 84%
    22:00 -2°C° 0 mm 3 mps 742 mmHg 83%
    23:00 -2°C° 0 mm 3 mps 742 mmHg 82%

    Day after tomorrow, 21 March, Thursday

    Time Temperature Precipitation Wind Pressure Humidity
    00:00 -2°C° 0.2 mm 3 mps 741 mmHg 85%
    01:00 -3°C° 0.2 mm 4 mps 740 mmHg 87%
    02:00 -2°C° 0.2 mm 4 mps 740 mmHg 90%
    03:00 -1°C° 0.3 mm 3 mps 739 mmHg 90%
    04:00 -1°C° 0.3 mm 3 mps 739 mmHg 90%
    05:00 -1°C° 0.3 mm 3 mps 739 mmHg 91%
    06:00 0°C° 0.1 mm 3 mps 739 mmHg 88%
    07:00 -1°C° 0.1 mm 4 mps 740 mmHg 85%
    08:00 -1°C° 0.1 mm 4 mps 740 mmHg 82%
    09:00 0°C° 0 mm 4 mps 740 mmHg 80%
    10:00 0°C° 0 mm 4 mps 741 mmHg 77%
    11:00 0°C° 0 mm 4 mps 741 mmHg 75%
    12:00 0°C° 0.1 mm 4 mps 742 mmHg 74%
    13:00 0°C° 0.1 mm 4 mps 742 mmHg 73%
    14:00 +1°C° 0.1 mm 4 mps 742 mmHg 73%
    15:00 0°C° 0 mm 4 mps 743 mmHg 75%
    16:00 +1°C° 0 mm 3 mps 743 mmHg 77%
    17:00 +1°C° 0 mm 3 mps 743 mmHg 79%
    18:00 +1°C° 0 mm 2 mps 743 mmHg 84%
    19:00 -1°C° 0 mm 2 mps 744 mmHg 88%
    20:00 0°C° 0 mm 1 mps 744 mmHg 93%
    21:00 -3°C° 0 mm 2 mps 744 mmHg 93%
    22:00 -3°C° 0 mm 2 mps 744 mmHg 93%
    23:00 -3°C° 0 mm 2 mps 744 mmHg 94%

    22 March, Friday

    Time Temperature Precipitation Wind Pressure Humidity
    00:00 -3°C° 0 mm 2 mps 743 mmHg 93%
    01:00 -2°C° 0 mm 2 mps 743 mmHg 93%
    02:00 -2°C° 0 mm 2 mps 743 mmHg 93%
    03:00 -1°C° 0 mm 3 mps 742 mmHg 91%
    04:00 -1°C° 0 mm 3 mps 742 mmHg 89%
    05:00 0°C° 0 mm 3 mps 741 mmHg 87%
    06:00 +1°C° 0.1 mm 3 mps 741 mmHg 89%
    07:00 +1°C° 0.1 mm 3 mps 741 mmHg 90%
    08:00 +1°C° 0.1 mm 3 mps 740 mmHg 92%
    09:00 +2°C° 0.3 mm 3 mps 740 mmHg 91%
    10:00 +3°C° 0.3 mm 4 mps 739 mmHg 91%
    11:00 +3°C° 0.3 mm 4 mps 739 mmHg 90%
    12:00 +4°C° 0.1 mm 4 mps 738 mmHg 90%
    13:00 +4°C° 0.1 mm 4 mps 737 mmHg 89%
    14:00 +5°C° 0.1 mm 5 mps 736 mmHg 89%
    15:00 +5°C° 0.2 mm 5 mps 736 mmHg 89%
    16:00 +5°C° 0.2 mm 5 mps 735 mmHg 89%
    17:00 +4°C° 0.2 mm 6 mps 734 mmHg 88%
    18:00 +3°C° 0.2 mm 6 mps 734 mmHg 81%
    19:00 +2°C° 0.2 mm 6 mps 734 mmHg 74%
    20:00 0°C° 0.2 mm 7 mps 734 mmHg 68%
    21:00 -1°C° 0 mm 7 mps 734 mmHg 70%
    22:00 -1°C° 0 mm 7 mps 734 mmHg 73%
    23:00 -2°C° 0 mm 7 mps 735 mmHg 75%

    23 March, Saturday

    Time Temperature Precipitation Wind Pressure Humidity
    00:00 -2°C° 0 mm 7 mps 735 mmHg 75%
    01:00 -2°C° 0 mm 7 mps 735 mmHg 75%
    02:00 -3°C° 0 mm 7 mps 736 mmHg 75%
    03:00 -3°C° 0 mm 7 mps 736 mmHg 76%
    04:00 -3°C° 0 mm 6 mps 737 mmHg 76%
    05:00 -3°C° 0 mm 6 mps 737 mmHg 77%
    06:00 -3°C° 0 mm 6 mps 738 mmHg 76%
    07:00 -3°C° 0 mm 6 mps 738 mmHg 75%
    08:00 -3°C° 0 mm 6 mps 738 mmHg 74%
    09:00 -2°C° 0 mm 5 mps 738 mmHg 72%
    10:00 -1°C° 0 mm 5 mps 738 mmHg 71%
    11:00 -1°C° 0 mm 5 mps 738 mmHg 70%
    12:00 0°C° 0 mm 4 mps 738 mmHg 69%
    13:00 0°C° 0 mm 4 mps 737 mmHg 69%
    14:00 +1°C° 0 mm 4 mps 737 mmHg 69%
    15:00 0°C° 0.2 mm 4 mps 736 mmHg 74%
    16:00 0°C° 0.2 mm 3 mps 736 mmHg 80%
    17:00 0°C° 0.2 mm 3 mps 735 mmHg 85%
    18:00 -1°C° 0.1 mm 3 mps 735 mmHg 87%
    19:00 -1°C° 0.1 mm 2 mps 735 mmHg 89%
    20:00 -1°C° 0.1 mm 2 mps 735 mmHg 91%
    21:00 -1°C° 0 mm 2 mps 735 mmHg 90%
    22:00 0°C° 0 mm 3 mps 735 mmHg 90%
    23:00 0°C° 0 mm 3 mps 735 mmHg 90%

    24 March, Sunday

    Time Temperature Precipitation Wind Pressure Humidity
    00:00 0°C° 0 mm 3 mps 736 mmHg 89%
    01:00 -1°C° 0 mm 3 mps 736 mmHg 87%
    02:00 -1°C° 0 mm 3 mps 737 mmHg 86%
    03:00 -1°C° 0 mm 3 mps 737 mmHg 86%
    04:00 -1°C° 0 mm 3 mps 737 mmHg 87%
    05:00 -1°C° 0 mm 3 mps 737 mmHg 87%
    06:00 -1°C° 0 mm 3 mps 738 mmHg 85%
    07:00 -1°C° 0 mm 3 mps 738 mmHg 83%
    08:00 -2°C° 0 mm 4 mps 738 mmHg 81%
    09:00 -1°C° 0 mm 4 mps 738 mmHg 78%
    10:00 0°C° 0 mm 3 mps 738 mmHg 75%
    11:00 +1°C° 0 mm 3 mps 738 mmHg 72%
    12:00 +2°C° 0 mm 3 mps 738 mmHg 69%
    13:00 +2°C° 0 mm 3 mps 738 mmHg 66%
    14:00 +3°C° 0 mm 3 mps 738 mmHg 64%
    15:00 +3°C° 0 mm 2 mps 737 mmHg 67%
    16:00 +3°C° 0 mm 2 mps 737 mmHg 71%
    17:00 +4°C° 0 mm 1 mps 736 mmHg 75%
    18:00 +3°C° 0 mm 1 mps 735 mmHg 78%
    19:00 +2°C° 0 mm 1 mps 735 mmHg 82%
    20:00 +1°C° 0 mm 1 mps 734 mmHg 85%
    21:00 +1°C° 0 mm 1 mps 734 mmHg 87%
    22:00 +1°C° 0 mm 1 mps 733 mmHg 89%
    23:00 +1°C° 0 mm 1 mps 732 mmHg 91%
    Show more